This is the latest recevied weather packets stored in our database for station/object WY1B. If no packets are shown the sender has not sent any weather packets the latest 10 day(s).
| Time | Temp. | Humidity | Pressure | Rain* | Wind** | Luminosity | Snow |
|---|---|---|---|---|---|---|---|
| 1787837082 | 31.11° C | 32% | 1004.8 hPa | 0 mm | - | 20 W/m² | - |
| 1787836781 | 31.11° C | 32% | 1004.8 hPa | 0 mm | - | 15 W/m² | - |
| 1787836477 | 31.11° C | 31% | 1004.6 hPa | 0 mm | - | 11 W/m² | - |
| 1787836172 | 30.56° C | 31% | 1004.5 hPa | 0 mm | - | 7 W/m² | - |
| 1787835867 | 30.56° C | 32% | 1004.6 hPa | 0 mm | - | 4 W/m² | - |
| 1787835566 | 30.56° C | 32% | 1004.2 hPa | 0 mm | - | 2 W/m² | - |
| 1787835262 | 31.11° C | 31% | 1004.3 hPa | 0 mm | - | 1 W/m² | - |
| 1787834957 | 31.11° C | 30% | 1004.2 hPa | 0 mm | - | 1 W/m² | - |
| 1787834656 | 31.11° C | 31% | 1004.3 hPa | 0 mm | - | 0 W/m² | - |
| 1787834351 | 31.67° C | 31% | 1004.1 hPa | 0 mm | - | 0 W/m² | - |
| 1787834047 | 31.67° C | 30% | 1004 hPa | 0 mm | - | 0 W/m² | - |
| 1787833743 | 31.67° C | 29% | 1003.8 hPa | 0 mm | - | 0 W/m² | - |
| 1787833438 | 31.67° C | 29% | 1003.9 hPa | 0 mm | - | 0 W/m² | - |
| 1787833133 | 31.67° C | 30% | 1003.8 hPa | 0 mm | - | 0 W/m² | - |
| 1787832828 | 31.67° C | 30% | 1004 hPa | 0 mm | - | 0 W/m² | - |
| 1787832524 | 31.11° C | 30% | 1004 hPa | 0 mm | - | 0 W/m² | - |
| 1787832222 | 31.67° C | 30% | 1003.8 hPa | 0 mm | - | 0 W/m² | - |
| 1787831921 | 31.67° C | 29% | 1003.8 hPa | 0 mm | - | 0 W/m² | - |
| 1787831616 | 31.67° C | 29% | 1003.8 hPa | 0 mm | - | 0 W/m² | - |
| 1787831315 | 31.67° C | 30% | 1003.8 hPa | 0 mm | - | 0 W/m² | - |
| 1787831012 | 32.22° C | 29% | 1003.6 hPa | 0 mm | - | 0 W/m² | - |
| 1787830711 | 32.22° C | 30% | 1003.5 hPa | 0 mm | - | 0 W/m² | - |
| 1787830410 | 32.22° C | 29% | 1003.6 hPa | 0 mm | - | 0 W/m² | - |
| 1787830105 | 32.22° C | 29% | 1003.5 hPa | 0 mm | - | 0 W/m² | - |
| 1787829805 | 32.22° C | 30% | 1003.5 hPa | 0 mm | - | 0 W/m² | - |
* Rain latest hour (hover to see other rain measurements)
** Current wind speed in m/s (hover to see current wind gust speed)